• In Hungary
  • List of Countries
  • For 7 days
  • Water Temperature
  • Satellite Maps
  • Weather Map
  • News
  • Weather Widgets
  • user-avatar
    Login

    Hourly Weather Trojanka

    Today, 16 July, Monday

    Time Temperature Precipitation Wind Pressure Humidity
    00:00 +17°C° 0 mm 2 mps 755 mmHg 90%
    01:00 +16°C° 0 mm 2 mps 755 mmHg 91%
    02:00 +16°C° 0 mm 2 mps 755 mmHg 92%
    03:00 +15°C° 0 mm 2 mps 755 mmHg 92%
    04:00 +15°C° 0 mm 2 mps 755 mmHg 93%
    05:00 +17°C° 0 mm 2 mps 754 mmHg 87%
    06:00 +18°C° 0 mm 2 mps 754 mmHg 80%
    07:00 +20°C° 0 mm 2 mps 754 mmHg 74%
    08:00 +23°C° 0 mm 2 mps 754 mmHg 67%
    09:00 +25°C° 0 mm 2 mps 754 mmHg 59%
    10:00 +26°C° 0 mm 2 mps 754 mmHg 52%
    11:00 +27°C° 0 mm 3 mps 753 mmHg 49%
    12:00 +28°C° 0 mm 3 mps 753 mmHg 46%
    13:00 +29°C° 0 mm 3 mps 753 mmHg 44%
    14:00 +29°C° 0.2 mm 3 mps 752 mmHg 47%
    15:00 +28°C° 0.2 mm 3 mps 752 mmHg 50%
    16:00 +28°C° 0.2 mm 3 mps 752 mmHg 54%
    17:00 +26°C° 0.2 mm 3 mps 752 mmHg 60%
    18:00 +25°C° 0.2 mm 3 mps 752 mmHg 67%
    19:00 +24°C° 0.2 mm 2 mps 752 mmHg 74%
    20:00 +23°C° 0.1 mm 2 mps 752 mmHg 77%
    21:00 +21°C° 0.1 mm 2 mps 751 mmHg 81%
    22:00 +20°C° 0.1 mm 2 mps 751 mmHg 85%
    23:00 +19°C° 0.2 mm 2 mps 751 mmHg 86%

    Tomorrow, 17 July, Tuesday

    Time Temperature Precipitation Wind Pressure Humidity
    00:00 +19°C° 0.2 mm 2 mps 751 mmHg 87%
    01:00 +19°C° 0.2 mm 2 mps 751 mmHg 88%
    02:00 +18°C° 0.7 mm 3 mps 751 mmHg 90%
    03:00 +18°C° 0.7 mm 3 mps 751 mmHg 91%
    04:00 +18°C° 0.7 mm 3 mps 750 mmHg 93%
    05:00 +18°C° 1.4 mm 3 mps 750 mmHg 93%
    06:00 +18°C° 1.4 mm 4 mps 750 mmHg 93%
    07:00 +18°C° 1.4 mm 4 mps 750 mmHg 94%
    08:00 +19°C° 0.9 mm 4 mps 750 mmHg 92%
    09:00 +19°C° 0.9 mm 4 mps 750 mmHg 91%
    10:00 +20°C° 0.9 mm 4 mps 750 mmHg 90%
    11:00 +21°C° 0.8 mm 4 mps 750 mmHg 87%
    12:00 +22°C° 0.8 mm 5 mps 750 mmHg 85%
    13:00 +22°C° 0.8 mm 5 mps 750 mmHg 82%
    14:00 +23°C° 1.2 mm 5 mps 750 mmHg 82%
    15:00 +23°C° 1.2 mm 5 mps 750 mmHg 82%
    16:00 +23°C° 1.2 mm 5 mps 750 mmHg 81%
    17:00 +22°C° 0.7 mm 5 mps 750 mmHg 85%
    18:00 +21°C° 0.7 mm 4 mps 750 mmHg 88%
    19:00 +20°C° 0.7 mm 4 mps 750 mmHg 92%
    20:00 +20°C° 0.1 mm 4 mps 750 mmHg 93%
    21:00 +20°C° 0.1 mm 3 mps 750 mmHg 95%
    22:00 +19°C° 0.1 mm 3 mps 750 mmHg 96%
    23:00 +19°C° 0.9 mm 3 mps 750 mmHg 96%

    Day after tomorrow, 18 July, Wednesday

    Time Temperature Precipitation Wind Pressure Humidity
    00:00 +19°C° 0.9 mm 3 mps 750 mmHg 97%
    01:00 +19°C° 0.9 mm 3 mps 750 mmHg 97%
    02:00 +19°C° 1.2 mm 3 mps 750 mmHg 97%
    03:00 +19°C° 1.2 mm 4 mps 750 mmHg 97%
    04:00 +19°C° 1.2 mm 4 mps 750 mmHg 96%
    05:00 +19°C° 0.5 mm 4 mps 751 mmHg 95%
    06:00 +19°C° 0.5 mm 4 mps 751 mmHg 95%
    07:00 +19°C° 0.5 mm 4 mps 751 mmHg 94%
    08:00 +20°C° 0.4 mm 4 mps 751 mmHg 92%
    09:00 +20°C° 0.4 mm 5 mps 751 mmHg 90%
    10:00 +21°C° 0.4 mm 5 mps 751 mmHg 89%
    11:00 +21°C° 0.2 mm 5 mps 751 mmHg 85%
    12:00 +22°C° 0.2 mm 5 mps 752 mmHg 81%
    13:00 +23°C° 0.2 mm 5 mps 752 mmHg 77%
    14:00 +25°C° 0.1 mm 5 mps 752 mmHg 73%
    15:00 +24°C° 0.1 mm 6 mps 752 mmHg 69%
    16:00 +26°C° 0.1 mm 6 mps 752 mmHg 65%
    17:00 +25°C° 0 mm 5 mps 752 mmHg 68%
    18:00 +23°C° 0 mm 4 mps 752 mmHg 71%
    19:00 +22°C° 0 mm 4 mps 753 mmHg 74%
    20:00 +21°C° 0 mm 3 mps 753 mmHg 78%
    21:00 +20°C° 0 mm 3 mps 753 mmHg 82%
    22:00 +18°C° 0 mm 3 mps 753 mmHg 86%
    23:00 +18°C° 0 mm 3 mps 753 mmHg 87%

    19 July, Thursday

    Time Temperature Precipitation Wind Pressure Humidity
    00:00 +18°C° 0 mm 3 mps 753 mmHg 88%
    01:00 +18°C° 0 mm 3 mps 754 mmHg 89%
    02:00 +17°C° 0 mm 3 mps 754 mmHg 89%
    03:00 +17°C° 0 mm 3 mps 754 mmHg 89%
    04:00 +17°C° 0 mm 3 mps 754 mmHg 89%
    05:00 +18°C° 0 mm 3 mps 754 mmHg 85%
    06:00 +19°C° 0 mm 4 mps 754 mmHg 82%
    07:00 +20°C° 0 mm 4 mps 754 mmHg 78%
    08:00 +22°C° 0 mm 4 mps 754 mmHg 73%
    09:00 +23°C° 0 mm 4 mps 754 mmHg 67%
    10:00 +25°C° 0 mm 5 mps 755 mmHg 62%
    11:00 +26°C° 0 mm 5 mps 755 mmHg 59%
    12:00 +27°C° 0 mm 5 mps 755 mmHg 57%
    13:00 +27°C° 0 mm 5 mps 754 mmHg 54%
    14:00 +27°C° 0 mm 5 mps 754 mmHg 54%
    15:00 +27°C° 0 mm 5 mps 754 mmHg 55%
    16:00 +27°C° 0 mm 5 mps 754 mmHg 55%
    17:00 +26°C° 0 mm 4 mps 754 mmHg 60%
    18:00 +23°C° 0 mm 4 mps 754 mmHg 65%
    19:00 +22°C° 0 mm 3 mps 754 mmHg 69%
    20:00 +20°C° 0 mm 3 mps 755 mmHg 74%
    21:00 +18°C° 0 mm 3 mps 755 mmHg 79%
    22:00 +17°C° 0 mm 2 mps 755 mmHg 83%
    23:00 +16°C° 0 mm 2 mps 755 mmHg 84%

    20 July, Friday

    Time Temperature Precipitation Wind Pressure Humidity
    00:00 +15°C° 0 mm 2 mps 755 mmHg 84%
    01:00 +15°C° 0 mm 2 mps 755 mmHg 84%
    02:00 +14°C° 0 mm 2 mps 755 mmHg 84%
    03:00 +14°C° 0 mm 2 mps 755 mmHg 84%
    04:00 +14°C° 0 mm 2 mps 755 mmHg 85%
    05:00 +15°C° 0 mm 2 mps 755 mmHg 80%
    06:00 +17°C° 0 mm 2 mps 755 mmHg 74%
    07:00 +19°C° 0 mm 2 mps 755 mmHg 69%
    08:00 +20°C° 0 mm 2 mps 755 mmHg 62%
    09:00 +23°C° 0 mm 2 mps 755 mmHg 56%
    10:00 +24°C° 0 mm 2 mps 755 mmHg 49%
    11:00 +25°C° 0 mm 2 mps 755 mmHg 46%
    12:00 +26°C° 0 mm 2 mps 755 mmHg 44%
    13:00 +27°C° 0 mm 2 mps 754 mmHg 41%
    14:00 +27°C° 0 mm 2 mps 754 mmHg 41%
    15:00 +27°C° 0 mm 2 mps 754 mmHg 41%
    16:00 +27°C° 0 mm 2 mps 754 mmHg 41%
    17:00 +26°C° 0 mm 2 mps 754 mmHg 47%
    18:00 +25°C° 0 mm 2 mps 754 mmHg 53%
    19:00 +24°C° 0 mm 2 mps 753 mmHg 59%
    20:00 +21°C° 0 mm 2 mps 753 mmHg 63%
    21:00 +20°C° 0 mm 2 mps 753 mmHg 67%
    22:00 +18°C° 0 mm 2 mps 754 mmHg 71%
    23:00 +18°C° 0 mm 2 mps 753 mmHg 74%

    21 July, Saturday

    Time Temperature Precipitation Wind Pressure Humidity
    00:00 +17°C° 0 mm 2 mps 753 mmHg 76%
    01:00 +16°C° 0 mm 2 mps 753 mmHg 79%
    02:00 +16°C° 0 mm 2 mps 753 mmHg 81%
    03:00 +16°C° 0 mm 2 mps 753 mmHg 83%
    04:00 +16°C° 0 mm 2 mps 752 mmHg 84%
    05:00 +17°C° 0 mm 2 mps 752 mmHg 79%
    06:00 +19°C° 0 mm 2 mps 752 mmHg 75%
    07:00 +20°C° 0 mm 2 mps 752 mmHg 70%
    08:00 +23°C° 0 mm 2 mps 752 mmHg 64%
    09:00 +24°C° 0 mm 2 mps 752 mmHg 58%
    10:00 +26°C° 0 mm 3 mps 752 mmHg 53%
    11:00 +27°C° 0 mm 3 mps 752 mmHg 50%
    12:00 +27°C° 0 mm 3 mps 752 mmHg 47%
    13:00 +28°C° 0 mm 3 mps 751 mmHg 44%
    14:00 +28°C° 0 mm 3 mps 751 mmHg 45%
    15:00 +28°C° 0 mm 3 mps 751 mmHg 45%
    16:00 +28°C° 0 mm 3 mps 751 mmHg 46%
    17:00 +27°C° 0 mm 2 mps 750 mmHg 51%
    18:00 +26°C° 0 mm 2 mps 750 mmHg 57%
    19:00 +25°C° 0 mm 2 mps 750 mmHg 62%
    20:00 +23°C° 0 mm 2 mps 750 mmHg 65%
    21:00 +21°C° 0 mm 3 mps 750 mmHg 67%
    22:00 +20°C° 0 mm 3 mps 751 mmHg 70%
    23:00 +19°C° 0 mm 3 mps 751 mmHg 71%
    Show more